AirNav   Pilot Hours Calculator
 
 1559 users online  

62AL Skywest Airpark
Mobile, Alabama, USA

GOING TO MOBILE?


FAA INFORMATION EFFECTIVE 15 AUGUST 2019

Location

FAA Identifier: 62AL
Lat/Long: 30-41-00.6880N 088-22-19.0400W
30-41.011467N 088-22.317333W
30.6835244,-88.3719556
(estimated)
Elevation: 150 ft. / 46 m (estimated)
Variation: 01E (1990)
From city: 18 miles W of MOBILE, AL
Time zone: UTC -5 (UTC -6 during Standard Time)
Zip code: 36608

Airport Operations

Airport use: Private use. Permission required prior to landing
Activation date: 05/1995
Control tower: no
ARTCC: HOUSTON CENTER
FSS: ANNISTON FLIGHT SERVICE STATION
Attendance: UNATNDD
Wind indicator: yes
Segmented circle: no

Airport Communications

WX ASOS at MOB (7 nm E): PHONE 251-607-0469
WX ASOS at PQL (16 nm SW): 135.175 (228-474-2836)
WX ASOS at BFM (16 nm E): PHONE 251-431-6762

Nearby radio navigation aids

VOR radial/distance  VOR name  Freq  Var
SJIr189/2.6SEMMES VORTAC115.3005E
BFMr281/16.9BROOKLEY VORTAC112.8004E
GCVr162/25.6GREENE COUNTY VORTAC115.7005E

 
NDB name  Hdg/Dist  Freq  Var  ID
WISLE218/5.824801WMOB -- --- -...

Airport Services

Runway Information

Runway 11/29

Dimensions: 2467 x 100 ft. / 752 x 30 m
Surface: turf, in good condition
Runway edge markings: 11/29 MKD WITH WHITE MARKERS SPACED 200 FT
RUNWAY 11  RUNWAY 29
Traffic pattern: leftleft
Obstructions: 29 ft. pole, 681 ft. from runway, 3 ft. left of centerline, 23:1 slope to clearnone

Airport Ownership and Management from official FAA records

Ownership: Privately-owned
Owner: ANTHONY & BARBARA WILLIAMS
13721 FRANK WILLIAMS RD
MOBILE, AL 36608
Phone 334-649-5033
Manager: ANTHONY & BARBARA WILLIAMS
13721 FRANK WILLIAMS RD
MOBILE, AL 36608
Phone 334-649-5033

Airport Operational Statistics

Aircraft based on the field: 7
Single engine airplanes: 7
    
Aircraft operations: avg 68/month *
59% transient general aviation
41% local general aviation
* for 12-month period ending 25 January 1999

Additional Remarks

FOR CD CTC HOUSTON ARTCC AT 281-230-5622.

Instrument Procedures

There are no published instrument procedures at 62AL.

Some nearby airports with instrument procedures:

KMOB - Mobile Regional Airport (7 nm E)
2R5 - St Elmo Airport (12 nm SE)
KPQL - Trent Lott International Airport (16 nm SW)
KBFM - Mobile Downtown Airport (16 nm E)
KCQF - H L Sonny Callahan Airport (29 nm SE)
 
Loc | Ops | Rwys | IFR | FBO | Links
Com | Nav | Svcs | Stats | Notes

Continental Motors
AirBoss

 
Area around 62AL (Skywest Airpark)
 
Road maps at: MapQuest Bing Google
 
Aerial photo
No photo
 
Sectional chart

 
Airport distance calculator
Flying to Skywest Airpark? Find the distance to fly.

From to 62AL

Sunrise and sunset
Times for 19-Aug-2019
 Local
(UTC-5)
 Zulu
(UTC)
Morning civil twilight05:5810:58
Sunrise06:2311:23
Sunset19:3100:31
Evening civil twilight19:5600:56

Current date and time
Zulu (UTC)  19-Aug-2019 15:10:50
Local (UTC-5)  19-Aug-2019 10:10:50
 
METAR
KMOB 
6nm E 
191503Z 32006KT 10SM FEW020 SCT024 BKN110 31/25 A3006 RMK AO2 T03060250
KPQL 
15nm SW 
191453Z 34004KT 10SM FEW017 OVC110 30/24 A3005 RMK AO2 SLP177 T03000244 51010
KBFM 
16nm E 
191453Z 36007KT 10SM SCT023 32/25 A3007 RMK AO2 SLP180 T03220250 51009
TAF
KMOB 
6nm E 
191132Z 1912/2012 00000KT P6SM VCSH SCT060 BKN250 FM191500 VRB04KT P6SM VCTS SCT030CB BKN250 FM191800 17008KT P6SM VCTS SCT030CB BKN070 BKN250 FM200200 25004KT P6SM BKN120 OVC250
KBFM 
16nm E 
191132Z 1912/2012 00000KT P6SM VCSH BKN070 FM191500 17008KT P6SM VCTS SCT030CB BKN250 FM191800 17008KT P6SM VCTS SCT030CB BKN070 BKN250 FM200200 30004KT P6SM BKN120 OVC250
NOTAMs
Click for the latest NOTAMs
NOTAMs are issued by the DoD/FAA and will open in a separate window not controlled by AirNav.

 

 
 

Would you like to see your business listed on this page?

 If your business provides an interesting product or service to pilots, flight crews, aircraft, or users of the Skywest Airpark, you should consider listing it here.  To start the listing process, click on the button below
 
Add a business
 

Other Pages about Skywest Airpark

Update a link
 
Copyright © AirNav, LLC. All rights reserved. Privacy Policy  Contact